Theta_e
297 292 287 288 291 290 290 287 287 290 296 295 295 295 299 302 303 302 304 303 299 300 300 299 299 298 302 301 303 308 324 325 329 328 327 326 326 327 329 330 332 331 327 326
293 289 291 295 294 292 291 287 284 289 295 294 294 294 297 299 299 301 301 301 296 298 295 296 298 297 301 301 301 301 303 304 308 319 325 327 327 327 328 328 328 329 331 330
288 292 296 295 292 290 287 285 284 286 290 292 292 290 293 298 299 299 300 299 297 297 297 296 298 299 301 302 302 303 302 301 302 303 305 307 319 323 324 326 325 326 327 328
292 297 294 293 291 291 285 291 290 289 287 283 289 282 287 295 296 297 299 299 297 296 295 296 298 300 301 302 303 303 303 303 303 302 302 302 305 313 315 312 311 311 316 320
289 293 291 290 292 293 288 293 290 288 284 283 283 281 285 287 288 295 299 297 297 296 295 297 299 301 302 302 302 303 304 305 305 304 301 301 300 301 302 303 303 305 311 312
292 296 293 291 294 294 296 290 289 286 283 280 282 282 283 286 288 290 293 297 299 295 295 298 300 303 301 301 302 302 303 303 305 305 305 302 300 301 303 304 304 305 306 307
290 291 294 294 289 293 292 288 277 275 279 277 281 280 286 289 290 291 292 293 294 295 295 298 301 301 300 300 300 301 301 301 302 303 303 303 302 302 302 302 302 302 303 303
284 283 291 294 288 288 287 286 277 273 274 275 280 278 284 290 292 293 293 293 292 292 294 298 300 299 299 298 298 299 300 299 301 301 300 300 300 300 299 298 298 297 298 299
281 283 292 294 293 291 287 283 285 280 274 271 278 280 285 287 288 289 290 291 291 293 296 298 299 298 297 297 297 298 298 298 298 297 295 294 293 293 292 292 292 292 292 297
285 279 290 292 296 293 291 290 282 281 273 272 275 275 280 284 286 288 290 291 292 295 297 297 296 296 296 296 295 295 297 296 294 294 293 292 291 291 291 291 290 290 291 291
287 283 286 291 288 288 289 287 286 283 279 272 272 277 283 284 286 286 289 292 294 296 297 296 295 295 295 293 293 293 294 293 292 292 291 290 290 290 290 289 289 289 290 290
290 283 278 284 291 293 292 289 289 282 277 275 272 279 285 285 286 286 290 295 296 297 296 295 294 294 293 292 292 292 292 292 291 291 290 290 290 289 289 288 289 289 289 289
290 282 278 282 287 291 288 290 290 288 282 272 278 279 287 286 287 289 291 295 296 296 295 294 294 293 292 291 291 291 291 291 290 290 289 289 288 288 287 288 288 288 288 288
296 285 280 276 279 284 285 286 289 288 283 282 279 281 285 286 287 290 292 294 295 296 296 294 293 294 293 292 291 291 291 291 290 290 289 288 289 291 291 292 290 290 289 288
291 282 284 284 284 285 284 285 287 286 287 283 282 282 287 291 289 290 292 294 295 294 294 294 293 293 292 291 291 291 291 290 290 289 289 289 292 292 292 291 291 291 291 292
289 283 280 277 283 283 282 284 285 287 287 288 288 287 293 293 288 289 292 295 296 295 295 294 293 293 291 290 290 291 290 290 290 289 289 290 292 291 291 291 290 290 290 291
284 282 278 275 281 280 276 282 284 284 286 288 284 289 289 289 291 291 291 294 296 296 296 295 294 293 292 291 291 289 289 289 288 288 288 290 291 290 290 289 289 288 288 289
283 281 279 275 277 270 281 285 286 285 287 288 288 290 291 292 291 292 292 293 294 297 297 295 294 292 292 292 291 290 289 288 288 288 288 290 290 289 289 288 288 287 287 285
287 283 281 279 275 278 282 282 283 283 283 287 288 290 291 290 290 291 293 293 294 294 296 296 294 292 291 291 290 289 288 288 288 288 289 290 290 289 288 287 286 285 283 276
286 287 285 278 276 272 279 286 288 287 280 288 289 288 288 289 285 289 292 294 294 295 295 292 291 291 290 289 289 288 288 288 287 288 290 290 290 288 287 286 285 284 278 276
283 284 281 280 279 279 285 287 289 278 281 290 290 290 288 287 289 291 293 293 293 291 290 289 289 289 289 289 289 287 286 286 288 289 290 290 289 288 287 285 284 278 279 279
282 280 281 281 280 276 287 288 284 287 290 291 291 289 289 290 291 290 291 290 290 289 289 290 288 287 287 288 288 286 286 287 288 289 289 289 288 288 287 285 283 283 281 277
280 283 281 282 282 287 288 290 291 292 292 293 291 292 291 292 291 291 290 289 289 289 289 289 289 287 285 286 287 285 286 287 287 288 288 287 288 287 286 283 280 277 276 275
282 285 283 284 286 287 288 289 291 293 293 294 297 298 295 294 293 291 290 289 290 290 289 289 287 287 286 285 286 286 287 290 289 288 287 287 286 285 284 281 281 278 275 274
284 284 283 282 285 286 289 289 290 292 294 293 293 294 295 295 294 293 293 291 290 289 289 288 288 288 287 286 286 287 289 290 289 288 287 286 286 286 280 279 278 278 275 276
286 284 283 282 287 288 288 291 291 293 293 293 293 291 293 294 294 294 294 294 292 291 290 288 287 287 287 287 287 288 289 290 288 287 286 285 284 281 278 277 276 283 283 284
Wind_Speed
6 5 10 4 3 5 6 6 6 3 4 9 12 8 14 13 8 17 21 14 10 8 4 4 2 2 6 6 5 3 5 3 3 2 3 2 3 2 3 4 5 6 5 6
4 7 7 7 3 5 6 6 2 1 2 6 8 10 9 16 16 20 22 20 9 6 3 4 3 2 3 4 4 5 5 3 1 1 1 1 2 2 2 2 4 5 5 5
2 4 8 6 4 5 2 6 4 2 2 2 4 6 8 8 7 11 14 11 6 9 8 6 6 5 4 4 4 4 3 4 3 2 1 1 1 1 1 2 1 1 4 5
1 2 11 7 4 5 3 3 5 2 3 3 1 5 7 12 13 11 17 15 11 9 6 5 5 4 4 3 3 5 5 5 4 3 2 2 2 2 0 1 2 3 5 4
2 6 9 5 4 3 3 2 5 3 4 3 2 2 4 3 9 20 15 9 10 9 9 10 8 6 5 5 4 5 6 6 5 5 4 2 0 1 1 2 3 3 4 5
2 1 4 3 3 3 4 5 7 5 3 2 7 6 5 7 7 5 6 10 12 11 10 8 7 6 5 5 6 6 6 5 5 6 6 5 4 3 3 3 3 3 3 4
4 3 1 2 6 3 5 4 2 2 2 6 3 5 12 4 7 8 8 8 9 8 9 12 11 8 7 7 6 6 6 5 5 6 6 6 5 5 5 3 3 4 3 3
3 4 4 1 2 5 4 6 5 6 4 4 1 9 7 5 6 8 8 6 6 8 8 10 10 8 8 7 6 7 6 5 5 5 5 5 6 4 3 3 2 3 3 3
3 2 2 1 2 1 4 4 4 4 2 3 5 8 8 7 10 8 8 5 7 10 11 10 8 7 7 7 6 7 7 6 6 6 5 5 5 5 4 4 3 3 3 3
4 4 1 2 1 3 1 5 3 2 2 4 5 5 7 7 7 5 8 8 6 6 6 7 7 8 5 6 5 6 6 7 5 6 5 5 5 5 4 4 5 5 4 5
5 4 2 6 5 6 3 3 1 4 5 5 3 7 7 5 7 8 8 7 7 7 9 8 6 6 6 6 6 6 6 7 6 5 4 5 4 5 5 5 4 4 4 5
6 5 4 4 1 2 4 4 5 3 5 1 3 11 3 6 8 7 7 6 7 7 8 7 7 7 6 6 6 6 5 6 5 5 5 5 5 5 5 5 5 5 5 5
7 1 3 1 2 0 5 7 8 3 2 7 4 7 0 4 6 4 7 7 7 7 8 7 7 6 7 6 6 6 5 6 5 5 5 5 5 5 5 5 5 5 5 5
5 3 6 8 6 5 6 9 14 12 9 7 16 10 6 5 5 5 5 6 7 9 9 7 6 7 6 6 6 6 6 5 5 5 5 5 5 5 4 4 4 4 4 5
5 6 5 5 4 4 6 9 15 20 18 14 1 15 13 13 6 7 8 7 7 7 9 10 9 8 7 6 6 6 5 6 5 5 5 5 4 4 4 4 4 4 4 4
3 2 3 4 2 6 5 8 13 20 21 22 23 27 13 9 5 5 9 9 11 10 10 9 8 9 9 9 8 7 6 6 5 5 5 4 5 5 5 5 4 4 5 5
7 6 3 5 3 4 6 16 17 8 9 19 20 27 3 7 10 8 8 10 12 11 11 11 12 11 9 10 9 8 7 6 5 5 5 4 5 5 5 5 5 4 4 5
6 6 3 2 3 4 9 2 5 13 16 15 13 13 9 10 8 6 8 10 10 8 8 8 8 7 7 7 8 8 7 7 6 6 5 5 6 6 6 5 5 3 3 5
7 5 3 3 4 7 10 2 6 8 7 11 19 20 15 4 2 6 7 8 11 9 6 6 6 6 7 9 9 9 8 7 6 6 6 6 6 7 6 6 5 3 3 2
4 2 5 3 4 6 6 2 4 3 6 2 5 11 7 6 8 6 4 6 7 7 6 7 7 6 8 7 9 9 8 7 7 6 7 7 7 7 7 6 5 3 2 3
4 3 8 5 5 7 9 6 4 2 6 2 3 7 6 7 6 3 4 4 5 4 6 7 7 8 8 9 9 8 7 8 6 6 7 7 7 7 7 6 3 3 3 5
9 8 4 4 4 9 7 4 6 6 3 3 3 3 5 4 4 2 4 5 6 7 6 6 7 6 6 8 8 7 7 6 6 7 7 7 7 6 6 7 5 4 4 4
4 8 7 9 8 4 6 5 4 3 3 3 2 0 5 5 3 3 4 6 5 7 5 4 5 6 5 6 6 7 6 7 7 7 7 7 7 7 7 7 6 4 5 4
3 3 3 3 6 8 7 5 6 4 4 2 1 2 4 5 6 5 5 5 5 5 6 5 7 6 6 6 6 5 7 8 8 8 8 7 7 6 5 4 4 4 5 4
5 3 7 4 6 5 6 7 6 6 4 3 2 1 2 5 4 4 5 6 5 6 5 7 7 7 8 7 7 6 8 9 8 8 7 7 6 7 5 5 5 5 5 6
5 6 6 7 8 6 7 3 4 7 6 6 6 3 2 3 3 2 2 4 5 6 6 6 6 6 7 8 8 8 8 9 8 7 6 6 5 4 4 4 4 10 11 12
Wind_Direction
231 168 192 139 140 147 123 110 139 197 201 183 196 204 175 178 193 275 274 266 250 233 273 320 313 100 119 96 114 138 176 177 147 146 161 207 214 209 232 224 228 224 212 201
291 170 152 145 178 116 140 120 118 318 141 164 183 204 215 183 187 212 247 257 257 267 256 272 183 159 53 98 94 106 115 127 152 119 158 173 176 201 199 201 231 236 236 220
273 136 139 135 143 97 58 126 143 121 30 52 147 251 226 231 222 203 228 233 228 228 216 228 221 185 143 130 128 111 100 108 118 127 118 30 353 342 300 243 273 302 252 235
66 197 144 146 119 125 103 140 138 133 77 222 232 278 245 226 225 220 232 231 230 218 196 192 215 180 161 146 104 100 92 82 59 39 109 146 172 208 328 19 10 7 15 349
244 153 140 137 164 129 189 69 127 111 96 25 311 309 252 202 238 237 245 223 227 208 190 187 193 181 152 136 117 100 85 65 49 54 62 84 112 347 330 352 359 16 31 34
67 75 59 139 83 93 145 70 54 59 85 257 225 184 256 210 217 244 228 229 213 189 190 170 161 144 127 117 112 110 98 75 61 61 56 72 82 51 50 16 15 6 13 28
33 40 54 102 85 36 90 81 40 3 220 232 337 254 249 233 242 221 234 234 225 190 177 162 161 163 151 139 126 119 109 89 75 72 62 62 69 66 70 45 28 21 8 13
168 169 172 120 136 169 143 170 159 194 198 243 299 229 246 243 267 244 245 224 200 189 170 168 164 156 151 141 128 119 113 100 85 79 68 61 66 74 66 51 50 37 16 6
137 80 94 357 93 43 173 173 152 93 14 39 243 297 281 274 269 279 283 264 215 186 171 165 144 146 143 138 136 131 117 101 91 92 84 65 57 61 63 53 56 53 20 11
193 102 246 134 175 54 111 165 109 90 218 259 282 271 238 288 281 273 255 233 226 155 137 139 145 148 142 136 127 116 117 121 116 105 98 89 79 69 62 52 40 31 20 23
158 117 142 145 196 168 151 192 127 121 160 190 283 263 225 232 262 288 266 210 175 164 153 150 150 145 139 135 136 131 127 127 115 106 98 92 78 69 65 60 41 31 30 25
197 128 172 188 53 295 187 212 172 210 199 218 146 258 224 241 267 274 256 184 158 162 155 153 153 151 151 151 149 147 139 128 127 120 108 97 90 77 68 58 46 39 41 33
188 193 116 157 342 191 209 199 224 112 115 202 194 259 216 307 322 257 205 179 167 150 152 155 155 165 173 170 162 156 153 141 136 124 118 103 92 88 81 71 63 58 54 46
123 164 178 187 190 145 194 199 204 204 232 228 234 286 294 285 272 248 206 195 177 170 166 168 172 186 177 173 171 159 155 150 143 132 127 122 132 129 131 126 98 82 74 70
157 209 187 253 214 177 198 212 208 218 230 233 157 234 238 266 260 233 222 184 176 184 176 186 183 186 180 173 174 164 152 149 146 138 139 146 122 113 109 105 102 94 80 69
151 238 111 297 264 211 238 211 211 221 229 243 247 264 243 265 269 225 211 203 192 194 198 193 184 183 186 184 178 167 160 158 151 145 148 151 127 124 123 113 114 100 86 72
153 143 107 263 357 349 298 228 214 200 211 220 237 242 197 246 237 232 211 192 202 205 200 192 194 191 183 183 171 170 158 142 148 148 155 147 141 138 131 128 117 92 89 88
147 135 123 206 50 274 237 227 198 216 239 217 238 239 214 225 226 228 201 202 207 206 199 194 180 172 168 159 152 136 146 152 154 161 161 153 150 144 137 128 121 111 93 92
156 143 144 193 204 294 298 221 178 178 271 216 229 251 249 232 156 257 213 207 209 201 191 194 168 152 149 157 148 144 150 154 160 167 165 162 156 147 142 138 133 110 111 79
112 40 187 151 194 242 247 258 189 150 287 238 214 250 227 156 221 240 222 191 183 181 168 157 145 130 141 147 145 149 159 164 175 169 165 159 157 153 148 142 139 119 116 120
156 161 210 193 220 276 246 234 147 140 237 265 230 255 193 191 217 223 126 117 134 137 141 126 133 151 154 146 149 157 160 181 169 153 154 154 151 144 144 139 117 127 140 122
169 172 181 164 219 265 175 84 176 221 287 253 289 275 188 199 170 98 116 131 132 129 124 131 134 143 145 150 152 157 176 163 152 149 153 149 146 152 152 145 146 165 182 168
192 182 178 177 208 232 206 210 218 189 242 294 308 47 179 169 189 151 148 152 153 144 127 113 130 139 154 159 161 163 177 155 152 159 159 155 153 153 159 154 172 159 179 177
267 167 170 105 245 227 238 255 234 204 228 265 358 122 159 161 166 154 147 157 151 160 153 144 145 163 179 179 173 166 155 170 164 172 167 162 161 157 162 170 174 175 186 193
245 163 169 262 280 305 260 233 227 209 204 150 94 76 115 120 143 146 166 173 185 167 158 161 175 180 194 180 175 165 164 172 183 176 167 169 174 177 179 197 192 202 217 189
200 207 168 215 211 178 239 244 183 186 190 177 147 122 81 95 140 145 209 198 180 184 165 181 183 179 181 178 178 177 177 181 178 179 178 182 178 171 176 192 230 238 227 224